N7ZAP Weather Reports


Display with metric or nautical units.
time (UTC)temp
F
wind
direction
speed
MPH
gust
MPH
rain 1hr
in
rain 24hr
in
rain mn
in
humidity
%
barometer
mb
20260506112655 44 210 0.0 1.0 0.00 0.00 0.00 70 1015.5
20260506112153 44 210 0.0 0.0 0.00 0.00 0.00 71 1015.6
20260506111651 44 210 0.0 0.0 0.00 0.00 0.00 69 1015.4
20260506111149 43 210 0.0 0.0 0.00 0.00 0.00 70 1015.6
20260506110646 43 210 0.0 1.0 0.00 0.00 0.00 73 1015.4
20260506110143 43 210 0.0 0.0 0.00 0.00 0.00 73 1015.6
20260506105639 43 210 0.0 0.0 0.00 0.00 0.00 73 1015.4
20260506105136 43 210 0.0 0.0 0.00 0.00 0.00 74 1015.3
20260506104634 44 210 0.0 0.0 0.00 0.00 0.00 72 1015.1
20260506104132 44 210 0.0 0.0 0.00 0.00 0.00 70 1015.1
20260506103629 44 210 1.0 1.0 0.00 0.00 0.00 71 1014.9
20260506103125 43 210 1.0 1.0 0.00 0.00 0.00 72 1015.1
20260506102624 43 209 0.0 0.0 0.00 0.00 0.00 73 1014.9
20260506102121 43 209 0.0 1.0 0.00 0.00 0.00 74 1015.2
20260506101617 43 209 0.0 0.0 0.00 0.00 0.00 74 1014.9
20260506101114 44 209 0.0 0.0 0.00 0.00 0.00 73 1014.7
20260506100613 44 209 0.0 0.0 0.00 0.00 0.00 72 1014.9
20260506100110 44 209 0.0 0.0 0.00 0.00 0.00 71 1014.8
20260506095609 44 209 0.0 0.0 0.00 0.00 0.00 69 1014.8
20260506095105 44 209 0.0 1.0 0.00 0.00 0.00 70 1014.7
20260506094603 44 209 0.0 0.0 0.00 0.00 0.00 69 1014.5
20260506094100 46 209 0.0 1.0 0.00 0.00 0.00 66 1014.6
20260506093559 46 209 0.0 1.0 0.00 0.00 0.00 66 1014.6
20260506093055 46 209 0.0 1.0 0.00 0.00 0.00 65 1014.6
20260506092553 47 210 0.0 1.0 0.00 0.00 0.00 63 1014.7
20260506092050 48 210 1.0 2.0 0.00 0.00 0.00 60 1014.7
20260506091548 49 222 1.0 1.0 0.00 0.00 0.00 59 1014.4
20260506091045 49 223 1.0 2.0 0.00 0.00 0.00 58 1014.6
20260506090543 49 218 0.0 2.0 0.00 0.00 0.00 59 1014.7
20260506090039 49 245 0.0 1.0 0.00 0.00 0.00 58 1014.7
20260506085536 50 272 0.0 1.0 0.00 0.00 0.00 57 1014.6
20260506085032 50 217 1.0 2.0 0.00 0.00 0.00 56 1014.6
20260506084530 50 269 2.0 3.0 0.00 0.00 0.00 56 1014.6
20260506084025 50 266 4.0 6.0 0.00 0.00 0.00 55 1014.7
20260506083523 50 257 4.0 4.0 0.00 0.00 0.00 55 1014.7
20260506083020 51 282 1.0 4.0 0.00 0.00 0.00 56 1014.7
20260506082517 50 270 4.0 6.0 0.00 0.00 0.00 57 1014.7
20260506082013 50 261 2.0 4.0 0.00 0.00 0.00 58 1014.6
20260506081511 50 262 2.0 3.0 0.00 0.00 0.00 59 1014.8
20260506081008 49 259 1.0 3.0 0.00 0.00 0.00 61 1014.7
20260506080506 49 247 1.0 2.0 0.00 0.00 0.00 63 1014.7
20260506073449 50 264 3.0 4.0 0.00 0.00 0.00 63 1014.6
20260506072946 50 262 2.0 8.0 0.00 0.00 0.00 64 1014.9
20260506072443 50 271 2.0 4.0 0.00 0.00 0.00 65 1014.8
20260506071941 50 265 2.0 3.0 0.00 0.00 0.00 66 1014.7
20260506071439 50 276 2.0 4.0 0.00 0.00 0.00 67 1014.8
20260506070935 50 257 3.0 3.0 0.00 0.00 0.00 67 1014.9
20260506070432 50 247 0.0 0.0 0.00 0.00 0.00 68 1014.7
20260506062410 50 237 0.0 0.0 0.00 0.00 0.00 75 1014.6
20260506061906 50 235 0.0 0.0 0.00 0.00 0.00 76 1014.6
20260506061402 50 235 0.0 0.0 0.00 0.00 0.00 74 1014.5
20260506060901 50 235 0.0 0.0 0.00 0.00 0.00 74 1014.6
20260506060358 51 235 0.0 0.0 0.00 0.00 0.00 74 1014.6
20260506051330 52 235 0.0 0.0 0.00 0.05 0.05 71 1014.1
20260506050828 52 235 0.0 0.0 0.00 0.05 0.05 71 1013.9
20260506050325 52 235 0.0 0.0 0.00 0.05 0.05 71 1014.2
20260506044815 53 226 0.0 0.0 0.00 0.05 0.05 69 1014.1
20260506044313 53 226 0.0 1.0 0.00 0.05 0.05 67 1014.5
20260506043810 53 226 0.0 1.0 0.00 0.05 0.05 66 1014.0
20260506043307 53 32 0.0 0.0 0.00 0.05 0.05 67 1014.1
20260506042806 53 33 0.0 0.0 0.00 0.05 0.05 69 1013.8
20260506042305 53 25 0.0 2.0 0.00 0.05 0.05 68 1013.8
20260506041803 53 19 0.0 1.0 0.00 0.05 0.05 69 1013.9
20260506041259 54 26 0.0 1.0 0.00 0.05 0.05 68 1013.9
20260506040757 54 78 0.0 1.0 0.00 0.05 0.05 68 1014.0
20260506040254 54 42 0.0 2.0 0.00 0.05 0.05 67 1013.8
20260506035750 55 42 0.0 1.0 0.00 0.05 0.05 65 1013.4
20260506035247 55 40 0.0 0.0 0.00 0.05 0.05 64 1013.7
20260506034744 55 79 1.0 1.0 0.00 0.05 0.05 62 1013.3
20260506034241 55 79 0.0 3.0 0.00 0.05 0.05 62 1013.3
20260506033738 55 61 0.0 1.0 0.00 0.05 0.05 62 1013.2
20260506033235 55 32 2.0 3.0 0.00 0.05 0.05 62 1012.9
20260506032732 56 79 1.0 1.0 0.00 0.05 0.05 61 1012.7
20260506032229 56 83 2.0 2.0 0.00 0.05 0.05 60 1012.6
20260506031726 56 335 1.0 1.0 0.00 0.05 0.05 63 1012.7
20260506031223 56 320 0.0 1.0 0.00 0.05 0.05 65 1012.6
20260506030722 56 281 0.0 4.0 0.00 0.05 0.05 66 1012.3
20260506030218 56 290 0.0 2.0 0.00 0.05 0.05 67 1012.2
20260506025715 57 341 0.0 0.0 0.00 0.05 0.05 65 1011.8
20260506025211 57 341 0.0 0.0 0.00 0.05 0.05 63 1011.8
20260506024709 56 341 0.0 0.0 0.00 0.05 0.05 63 1011.6
20260506024205 57 341 0.0 0.0 0.00 0.05 0.05 66 1011.5
20260506023701 57 341 0.0 1.0 0.00 0.05 0.05 64 1011.3
20260506023159 57 341 0.0 1.0 0.00 0.05 0.05 64 1011.5
20260506022656 57 341 1.0 1.0 0.00 0.05 0.05 64 1011.5
20260506022153 57 341 1.0 1.0 0.00 0.05 0.05 68 1011.1
20260506021651 57 341 1.0 1.0 0.00 0.05 0.05 67 1011.1
20260506021148 57 342 1.0 1.0 0.00 0.05 0.05 67 1010.8
20260506020645 57 342 0.0 0.0 0.00 0.05 0.05 64 1010.7
20260506020143 57 342 0.0 0.0 0.00 0.05 0.05 66 1010.7
20260506015640 57 342 0.0 0.0 0.00 0.05 0.05 64 1010.7
20260506015137 58 342 0.0 0.0 0.00 0.05 0.05 64 1010.7
20260506014635 58 342 0.0 0.0 0.00 0.05 0.05 61 1010.5
20260506014130 58 342 0.0 0.0 0.00 0.05 0.05 62 1010.2
20260506013629 59 342 0.0 0.0 0.00 0.05 0.05 60 1010.4
20260506013125 59 342 0.0 1.0 0.00 0.05 0.05 60 1010.2
20260506012621 59 338 0.0 0.0 0.00 0.05 0.05 61 1010.2
20260506012118 59 338 0.0 1.0 0.00 0.05 0.05 63 1010.2
20260506011616 60 338 0.0 0.0 0.07 0.05 0.05 63 1010.5
20260506011112 60 338 0.0 1.0 0.07 0.05 0.05 63 1010.2
20260506010611 60 338 1.0 2.0 0.00 0.04 0.04 59 1010.5
20260506010108 61 338 0.0 0.0 0.00 0.04 0.04 65 1010.4
20260506005605 62 338 0.0 0.0 0.00 0.04 0.04 64 1010.7
20260506005101 62 338 0.0 1.0 0.00 0.04 0.04 48 1010.3
20260506004558 62 338 1.0 1.0 0.00 0.04 0.04 47 1010.1
20260506004055 63 338 0.0 0.0 0.00 0.04 0.04 46 1010.1
20260506003551 63 338 0.0 0.0 0.00 0.04 0.04 47 1010.2
20260506003047 63 338 0.0 1.0 0.00 0.04 0.04 46 1010.0
20260506002543 63 338 0.0 1.0 0.00 0.04 0.04 45 1010.0
20260506002039 64 338 0.0 1.0 0.00 0.04 0.04 45 1009.8
20260506001536 66 337 0.0 1.0 0.00 0.04 0.04 42 1009.8
20260506001033 67 335 0.0 1.0 0.00 0.04 0.04 41 1010.0
20260506000530 67 335 0.0 2.0 0.00 0.04 0.04 40 1009.8
20260506000028 67 270 0.0 1.0 0.00 0.04 0.04 43 1009.7
20260505235526 67 250 1.0 3.0 0.00 0.04 0.04 42 1010.0
20260505235022 67 346 0.0 0.0 0.00 0.04 0.04 42 1010.1
20260505234519 67 346 0.0 2.0 0.00 0.04 0.04 42 1010.1
20260505234016 66 257 1.0 3.0 0.00 0.04 0.04 41 1010.3
20260505233514 65 346 0.0 1.0 0.00 0.04 0.04 45 1010.1
20260505233011 64 257 0.0 3.0 0.00 0.04 0.04 46 1010.4
20260505232509 65 273 3.0 4.0 0.00 0.04 0.04 44 1010.3
20260505232006 65 87 0.0 1.0 0.00 0.04 0.04 43 1010.3
20260505231503 65 88 1.0 2.0 0.00 0.04 0.04 44 1010.2
20260505231001 66 84 0.0 2.0 0.00 0.04 0.04 43 1010.3
20260505230458 65 107 0.0 1.0 0.00 0.04 0.04 46 1010.5
20260505225954 64 107 0.0 2.0 0.00 0.04 0.04 49 1010.4
20260505225452 65 135 1.0 2.0 0.00 0.04 0.04 47 1010.7
20260505224948 65 232 0.0 2.0 0.00 0.04 0.04 44 1010.7
20260505224445 64 288 0.0 4.0 0.00 0.04 0.04 47 1010.7
20260505223942 64 68 1.0 2.0 0.00 0.04 0.04 46 1010.3
20260505223439 64 232 1.0 2.0 0.00 0.04 0.04 46 1010.4
20260505222935 64 83 0.0 2.0 0.00 0.04 0.04 47 1010.7
20260505222432 65 128 0.0 1.0 0.00 0.04 0.04 49 1010.8
20260505221927 64 52 0.0 1.0 0.00 0.04 0.04 49 1011.0
20260505221425 64 89 1.0 2.0 0.00 0.04 0.04 50 1010.9
20260505220922 63 10 1.0 1.0 0.00 0.04 0.04 56 1010.9
20260505220419 63 312 2.0 3.0 0.00 0.04 0.04 56 1011.1
20260505215916 63 326 1.0 4.0 0.00 0.04 0.04 58 1011.1
20260505215415 62 252 2.0 3.0 0.00 0.04 0.04 61 1011.3
20260505214912 60 340 0.0 2.0 0.00 0.04 0.04 69 1011.6
20260505214409 60 83 2.0 2.0 0.00 0.04 0.04 66 1011.7
20260505213907 60 320 1.0 2.0 0.00 0.04 0.04 65 1011.5
20260505213404 61 85 1.0 3.0 0.00 0.04 0.04 66 1011.7
20260505212900 62 280 1.0 4.0 0.00 0.04 0.04 64 1011.7
20260505212357 63 254 1.0 3.0 0.00 0.04 0.04 57 1011.3
20260505211854 63 270 1.0 2.0 0.00 0.04 0.04 53 1011.0
20260505211351 63 67 0.0 1.0 0.00 0.04 0.04 52 1011.0
20260505210847 64 84 0.0 1.0 0.00 0.04 0.04 50 1010.9
20260505210345 64 46 0.0 3.0 0.00 0.04 0.04 50 1011.1
20260505205841 65 222 1.0 1.0 0.00 0.04 0.04 48 1011.3
20260505205340 66 62 0.0 1.0 0.00 0.04 0.04 50 1011.0
20260505204836 66 268 1.0 2.0 0.00 0.04 0.04 49 1011.3
20260505204334 65 81 1.0 2.0 0.00 0.04 0.04 49 1011.3
20260505203831 64 99 1.0 2.0 0.00 0.04 0.04 51 1011.6
20260505203327 64 334 2.0 2.0 0.00 0.04 0.04 52 1011.8
20260505202824 64 276 0.0 1.0 0.00 0.04 0.04 54 1012.2
20260505202320 65 261 3.0 3.0 0.00 0.04 0.04 50 1012.0
20260505201817 67 257 4.0 8.0 0.00 0.04 0.04 46 1012.2
20260505201314 67 272 0.0 1.0 0.00 0.04 0.04 46 1012.0
20260505200813 67 276 3.0 4.0 0.00 0.04 0.04 47 1011.9
20260505200309 66 213 0.0 1.0 0.00 0.04 0.04 51 1011.6
20260505195804 65 239 0.0 1.0 0.00 0.04 0.04 50 1011.9
20260505195305 65 269 1.0 1.0 0.00 0.04 0.04 48 1011.9
20260505194759 65 262 0.0 2.0 0.00 0.04 0.04 51 1011.8
20260505194256 64 161 0.0 0.0 0.00 0.04 0.04 53 1011.6
20260505193756 65 78 1.0 1.0 0.00 0.04 0.04 50 1011.8
20260505193255 65 357 0.0 2.0 0.00 0.04 0.04 53 1011.9
20260505192753 65 81 1.0 2.0 0.00 0.04 0.04 55 1011.9
20260505192250 64 292 1.0 2.0 0.00 0.04 0.04 59 1012.0
20260505191748 63 121 1.0 2.0 0.00 0.04 0.04 62 1012.5
20260505191246 63 105 1.0 1.0 0.00 0.04 0.04 65 1012.6
20260505190742 61 286 2.0 3.0 0.00 0.04 0.04 70 1012.5
20260505190237 59 276 1.0 3.0 0.00 0.04 0.04 79 1012.5
20260505185734 58 252 4.0 6.0 0.05 0.04 0.04 78 1012.5
20260505185231 58 278 0.0 1.0 0.00 0.03 0.03 77 1012.6
20260505184726 59 269 2.0 3.0 0.00 0.03 0.03 74 1012.6
20260505184224 60 234 1.0 3.0 0.00 0.03 0.03 70 1013.1
20260505183720 61 305 1.0 1.0 0.00 0.03 0.03 67 1012.7
20260505183218 61 267 0.0 1.0 0.00 0.03 0.03 65 1012.5
20260505182714 61 273 1.0 2.0 0.00 0.03 0.03 64 1012.6
20260505182211 61 283 1.0 3.0 0.00 0.03 0.03 66 1012.7
20260505181708 61 101 0.0 2.0 0.00 0.03 0.03 65 1012.7
20260505181206 60 65 0.0 2.0 0.00 0.03 0.03 66 1012.6
20260505180701 60 260 0.0 4.0 0.00 0.03 0.03 72 1012.5
20260505180159 60 260 3.0 4.0 0.00 0.03 0.03 68 1013.0
20260505175654 60 170 1.0 1.0 0.00 0.03 0.03 65 1012.9
20260505175151 60 135 0.0 1.0 0.00 0.03 0.03 65 1012.7
20260505174648 61 110 0.0 1.0 0.00 0.03 0.03 61 1012.9
20260505174144 62 107 0.0 1.0 0.00 0.03 0.03 56 1013.1
20260505173641 61 111 2.0 2.0 0.00 0.03 0.03 59 1012.7
20260505173138 60 120 0.0 1.0 0.00 0.03 0.03 64 1012.9
20260505172635 59 127 1.0 1.0 0.00 0.03 0.03 67 1012.9
20260505172132 58 108 2.0 2.0 0.00 0.03 0.03 68 1012.7
20260505171626 57 110 0.0 1.0 0.00 0.03 0.03 74 1013.2
20260505171124 55 145 0.0 1.0 0.00 0.03 0.03 76 1013.0
20260505170621 55 145 0.0 1.0 0.00 0.03 0.03 77 1013.4
20260505170117 55 145 0.0 1.0 0.00 0.03 0.03 75 1013.1
20260505165612 55 148 0.0 0.0 0.07 0.03 0.03 77 1013.1
20260505165108 54 157 0.0 2.0 0.07 0.03 0.03 79 1013.2
20260505164604 54 119 0.0 0.0 0.00 0.02 0.02 79 1013.1
20260505164102 53 118 1.0 2.0 0.00 0.02 0.02 79 1013.3
20260505163600 53 119 0.0 2.0 0.00 0.02 0.02 78 1013.4
20260505163057 53 103 0.0 1.0 0.00 0.02 0.02 80 1013.6
20260505162555 53 107 1.0 1.0 0.00 0.02 0.02 81 1013.0
20260505162052 52 32 0.0 0.0 0.00 0.02 0.02 84 1013.1
20260505161549 52 18 0.0 2.0 0.05 0.02 0.02 83 1013.2
20260505161047 52 324 0.0 2.0 0.05 0.02 0.02 83 1013.2
20260505160544 52 27 0.0 1.0 0.00 0.01 0.01 82 1013.3
20260505153021 57 86 0.0 4.0 0.00 0.00 0.00 61 1013.1
20260505152518 58 37 1.0 1.0 0.00 0.00 0.00 58 1012.7
20260505152013 59 9 0.0 1.0 0.00 0.00 0.00 52 1012.9
20260505151509 60 12 0.0 2.0 0.00 0.00 0.00 49 1013.1
20260505151006 60 272 1.0 1.0 0.00 0.00 0.00 47 1013.0
20260505150503 60 282 0.0 0.0 0.00 0.00 0.00 48 1012.9
20260505140432 60 237 1.0 1.0 0.00 0.00 0.00 47 1013.2
20260505124846 59 268 1.0 3.0 0.00 0.00 0.00 40 1012.5
20260505124343 59 273 2.0 3.0 0.00 0.00 0.00 40 1012.3
20260505123839 59 236 1.0 2.0 0.00 0.00 0.00 40 1012.5
20260505123336 59 264 1.0 2.0 0.00 0.00 0.00 40 1012.4
20260505122832 59 253 1.0 1.0 0.00 0.00 0.00 40 1012.2
20260505122330 59 255 1.0 1.0 0.00 0.00 0.00 40 1012.0
20260505121826 59 275 1.0 3.0 0.00 0.00 0.00 40 1011.9
20260505121323 59 269 0.0 2.0 0.00 0.00 0.00 40 1012.0
20260505120819 59 271 0.0 2.0 0.00 0.00 0.00 39 1012.2
20260505120315 59 266 0.0 2.0 0.00 0.00 0.00 39 1012.3
20260505115814 60 266 0.0 2.0 0.00 0.00 0.00 39 1012.3
20260505115312 60 267 1.0 3.0 0.00 0.00 0.00 38 1012.4
20260505114809 60 270 1.0 2.0 0.00 0.00 0.00 38 1012.2
20260505114305 60 266 0.0 1.0 0.00 0.00 0.00 38 1012.0
20260505113802 60 269 1.0 1.0 0.00 0.00 0.00 38 1011.9
20260505113258 60 265 2.0 2.0 0.00 0.00 0.00 37 1012.2